Location: ?
(35.6384°N, 139.6117°E)
Time: 11:46:38
(UTC+00:00)

Daily predictions for brighter satellites

Satellite Brightness Start Highest point End
(mag) Time Altitude Azimuth Time Altitude Azimuth Time Altitude Azimuth
CENTAUR R/B 4.1 18:33:52 26° NNE 18:33:52 26° NNE 18:36:39 10° NNE
Cosmos 2369 Rocket 3.3 18:46:27 15° SSE 18:50:37 40° ESE 18:55:49 10° NE
NOSS 3-2 (C) 4.5 18:53:33 33° NNE 18:53:33 33° NNE 18:56:54 10° NNE
Centaur D-1A AC-31 3.5 18:52:21 18° SSE 18:52:21 18° SSE 18:54:19 10° SE
Cosmos 1867 4.4 18:56:42 44° NE 18:56:57 44° NE 19:02:07 10° SE
Cosmos 2034 Rocket 3.9 19:07:54 74° N 19:08:31 89° W 19:14:49 10° S
Cosmos 1943 Rocket 3.8 19:21:01 21° N 19:21:01 21° N 19:22:54 10° N
USA 238 DEB 4.1 19:20:11 42° NNW 19:20:11 42° NNW 19:25:18 10° NNE
USA 238 4.1 19:20:15 42° NNW 19:20:15 42° NNW 19:25:25 10° NNE
CZ-2C R/B 4.2 19:14:36 10° SE 19:19:30 34° ENE 19:24:20 10° N
Cosmos 2082 Rocket 3.8 19:32:56 19° SSW 19:32:56 19° SSW 19:34:44 10° SSW
Cosmos 1634 Rocket 4.4 19:24:01 10° N 19:30:14 62° E 19:36:21 10° SSE
Tsikada Rocket 3.9 19:26:44 10° SSW 19:32:50 63° W 19:39:03 10° N
Chandra Rocket (1) 4.2 19:34:35 11° S 19:34:35 11° S 19:34:45 10° S
Meteor 1-31 Rocket 3.9 19:31:51 10° NNE 19:35:36 45° E 19:39:22 10° S
Hubble Space Telescope 2.8 19:36:17 18° S 19:36:17 18° S 19:38:46 10° SSE
Cosmos 1782 2.8 19:36:45 70° NE 19:37:02 75° E 19:40:58 10° S
Cosmos 1766 Rocket 4.4 19:33:26 10° SSE 19:37:37 48° E 19:41:47 10° NNE
Cosmos 1151 Rocket 4.4 19:34:30 10° N 19:38:37 38° E 19:42:41 10° SSE
Cosmos 1862 4.2 19:36:24 10° SSE 19:40:11 47° E 19:43:59 10° NNE
Envisat 3.0 19:35:26 10° NNE 19:40:32 78° ESE 19:45:36 10° S
Cosmos 2098 Rocket 3.1 19:37:41 10° S 19:41:13 66° E 19:45:39 10° NNE
DELTA 2 R/B (1) 3.4 19:40:09 52° WSW 19:41:33 86° NNW 19:47:07 10° ENE
Cosmos 968 Rocket 4.2 19:44:13 34° NNW 19:44:13 34° NNW 19:47:28 10° N
H-2A R/B 2.5 19:42:28 10° N 19:46:12 87° W 19:49:58 10° SSW
SJ-12 3.8 19:44:58 10° N 19:49:06 80° WNW 19:53:13 10° SSW
YAOGAN 6 4.4 19:57:14 19° SSW 19:57:14 19° SSW 19:58:22 10° SSW
Cosmos 1241 Rocket 4.3 19:52:28 27° NW 19:56:03 75° WSW 20:02:13 10° SSE
COSMO-SKYMED 1 2.8 19:51:50 10° SSE 19:56:08 71° ENE 20:00:28 10° N
SAR-Lupe-3 4.4 19:53:35 10° N 19:57:11 82° WNW 20:00:46 10° SSW
OE (NEXTSAT) 4.1 19:57:55 75° WNW 19:58:10 85° SSW 20:01:34 10° SE
Meteor 2-3 Rocket 4.3 19:54:51 10° SW 19:59:53 33° WNW 20:05:02 10° N
SL-19 R/B 4.2 19:56:23 10° S 20:02:00 70° WSW 20:07:34 10° NNW
Cosmos 1354 Rocket 4.2 19:58:21 10° S 20:03:35 72° ESE 20:08:52 10° NNE
CZ-3 R/B 4.1 19:51:58 10° SW 20:04:23 25° S 20:09:40 10° ESE
Helios 1B 4.4 20:00:35 10° SSE 20:04:53 85° WSW 20:09:07 11° NNW
CBERS 1 LM4 rocket 4.3 20:00:00 10° N 20:04:54 74° WNW 20:09:57 10° SSW
ATLAS 5 CENTAUR R/B 3.1 20:02:29 10° S 20:05:48 31° ESE 20:09:19 10° NE
ADEOS 3.8 20:04:12 10° NNE 20:09:25 73° ESE 20:14:37 10° S
Iridium 2 3.9 20:08:09 10° SSW 20:11:47 45° W 20:15:26 10° N
Cosmos 1408 Rocket 4.3 20:08:12 10° S 20:12:24 54° E 20:16:36 10° NNE
FALCON 9 R/B 4.1 19:56:52 21° W 20:15:22 82° SSW 20:22:15 10° ESE
BREEZE-M DEB (TANK) 4.0 20:04:09 15° NW 20:18:56 85° SW 20:23:49 10° SE
CZ-2C R/B 3.6 20:14:52 10° NNE 20:19:43 58° E 20:24:47 10° S
MOS 1-B Rocket 4.3 20:14:57 10° S 20:21:19 48° W 20:26:59 10° NNW
CENTAUR R/B 4.0 20:21:05 16° NW 20:21:57 16° NW 20:26:08 10° N
Cosmos 2263 4.5 20:16:48 10° SW 20:22:11 44° WNW 20:27:39 10° N
BREEZE-M DEB (TANK) 4.2 20:22:21 20° WNW 20:25:25 40° SW 20:29:33 10° SSE
Gbstr 26 Del rocket 3.9 20:23:58 23° W 20:25:33 30° SW 20:29:28 10° SSE
Cosmos 1340 Rocket 4.1 20:27:47 10° SSE 20:31:31 43° E 20:35:18 10° NNE
Cosmos 1515 Rocket 4.1 20:29:59 10° N 20:34:18 61° E 20:38:34 10° SSE
Cosmos 2369 Rocket 3.1 20:30:15 10° WSW 20:34:44 25° WNW 20:39:16 10° N
SJ 16-02 1.8 20:31:29 10° S 20:35:49 65° ESE 20:40:09 10° NNE
DNEPR-1 R/B 4.3 20:32:46 10° NNW 20:37:47 76° ENE 20:43:54 10° SSE
Genesis I 4.2 20:38:10 16° WNW 20:40:39 30° WSW 20:44:10 10° S
H-2A R/B 4.5 20:38:44 10° NE 20:42:46 25° E 20:46:47 10° SSE
SKYMED 2 4.4 20:40:28 10° SSW 20:44:16 30° W 20:48:06 10° NW
Cosmos 1939 Rocket 3.1 20:42:24 10° NNE 20:46:19 72° E 20:50:09 10° S
Landsat 5 4.2 20:42:59 10° SSW 20:47:12 39° W 20:51:25 10° NNW
ATLAS 3B R/B 2.8 20:42:07 10° SSW 20:48:33 79° ESE 20:55:17 10° NNE
Cosmos 1500 Rocket 3.7 20:44:24 10° S 20:48:50 81° E 20:53:18 10° N
DMSP B5D2-2 4.1 20:44:53 10° SSE 20:50:06 86° WSW 20:55:21 10° NNW
Cosmos 1812 4.0 20:47:59 10° NW 20:50:50 20° W 20:53:40 10° SW
Cosmos 1777 Rocket 4.0 20:50:49 10° SSW 20:55:59 68° WNW 21:01:12 10° NNE
Cosmos 2279 Rocket 4.5 20:53:47 10° NNW 20:59:24 38° W 21:05:01 10° SSW
CZ-2C R/B 3.6 20:55:07 10° SSW 20:59:44 27° W 21:04:19 10° NW
Cosmos 1805 Rocket 4.2 20:56:17 10° S 21:00:37 60° E 21:04:56 10° NNE
Sich 1 4.3 20:56:48 10° SSE 21:00:53 45° E 21:04:58 10° NNE
Meteor PRIRODA 4.1 20:57:52 10° N 21:01:13 36° WNW 21:04:33 10° SW
H-2A R/B 2.1 20:58:47 10° SSE 21:02:59 85° ENE 21:07:20 10° NNW
Nadezhda 4 Rocket 4.1 20:57:55 10° SSW 21:03:55 57° W 21:10:02 10° N
SL-4 R/B 4.0 21:01:56 10° SSW 21:04:59 29° SE 21:08:13 10° ENE
CZ-4B R/B 2.9 21:02:28 10° SE 21:05:35 38° ENE 21:08:41 10° N
Cosmos 773 Rocket 4.0 21:03:37 10° NNW 21:08:50 83° WSW 21:13:59 10° SSE
NOAA 6 4.1 21:04:53 10° NNE 21:10:00 87° WNW 21:15:08 10° SSW
USA 215 3.3 21:04:03 10° SE 21:10:35 83° SW 21:17:09 10° NW
Okean O Rocket 4.3 21:07:18 10° NE 21:10:54 24° E 21:14:27 10° SSE
